Weather History for Blue Canyon, CA

Change the Weather History Date:

Tuesday, December 25, 2012

  Actual Average Record
Temperature  
Mean Temperature 30 °F -  
Max Temperature 33 °F 48 °F 65 °F (1985)
Min Temperature 28 °F 34 °F 20 °F (1954)
Degree Days  
Heating Degree Days 34    
Moisture  
Dew Point 27 °F    
Average Humidity 89    
Maximum Humidity 100    
Minimum Humidity 42    
Precipitation  
Precipitation 1.11 in - - ()
Sea Level Pressure  
Sea Level Pressure 29.91 in    
Wind  
Wind Speed 7 mph (SSE)    
Max Wind Speed 16 mph    
Max Gust Speed 31 mph    
Visibility 3 miles    
Events Fog , Snow    
Averages and records for this station are not official NWS values.
T = Trace of Precipitation, MM = Missing Value Source: NWS Daily Summary

Daily Weather History Graph

Daily Weather History Graph

Search for Another Location

Airport:

Trip Planner

Search our weather history database for the weather conditions in past years. The results will help you decide how hot, cold, wet, or windy it might be!

Date:

Astronomy

Dec. 25, 2012 Rise Set
Actual Time 7:20 AM PST 4:45 PM PST
Civil Twilight 6:50 AM PST 5:15 PM PST
Nautical Twilight 6:17 AM PST 5:49 PM PST
Astronomical Twilight 5:44 AM PST 6:22 PM PST
Moon 2:57 PM PST (12/25) 4:58 AM PST (12/25)
Length of Visible Light 10h 25m
Length of Day
9h 24m
Waxing Gibbous, 94% of the Moon is Illuminated
Dec 25
Waxing Gibbous
Dec 28
Full
Jan 4
Last Quarter
Jan 11
New
Jan 18
First Quarter

Hourly Weather History & Observations

Time (PST) Temp. Windchill Dew Point Humidity Pressure Visibility Wind Dir Wind Speed Gust Speed Precip Events Conditions
12:52 AM 30.9 °F 27.5 °F 19.9 °F 64% 30.13 in 10.0 mi ESE 3.5 mph - N/A   Scattered Clouds
1:52 AM 32.0 °F 27.5 °F 19.9 °F 61% 30.12 in 10.0 mi ESE 4.6 mph - N/A   Partly Cloudy
2:52 AM 32.0 °F 26.4 °F 18.0 °F 56% 30.10 in 10.0 mi East 5.8 mph - N/A   Overcast
3:52 AM 32.0 °F 27.5 °F 14.0 °F 48% 30.08 in 10.0 mi ESE 4.6 mph - N/A   Mostly Cloudy
4:52 AM 33.1 °F 28.7 °F 12.0 °F 42% 30.07 in 10.0 mi SE 4.6 mph - N/A   Overcast
6:52 AM 33.1 °F 28.7 °F 15.1 °F 48% 30.07 in 10.0 mi South 4.6 mph - N/A   Overcast
7:52 AM 30.0 °F 25.2 °F 21.9 °F 72% 30.13 in 10.0 mi SE 4.6 mph - N/A   Overcast
8:52 AM 30.9 °F 27.5 °F 21.0 °F 67% 30.09 in 10.0 mi Variable 3.5 mph - N/A   Overcast
9:52 AM 32.0 °F 25.6 °F 24.1 °F 73% 30.10 in 10.0 mi SSW 6.9 mph - N/A   Overcast
10:31 AM 30.2 °F 22.6 °F 26.6 °F 86% 30.04 in 10.0 mi SE 8.1 mph - N/A   Overcast
10:39 AM 30.2 °F 22.6 °F 28.4 °F 93% 30.04 in 2.5 mi SSE 8.1 mph - 0.00 in Snow Light Snow
10:56 AM 30.2 °F 21.3 °F 28.4 °F 93% 30.03 in 3.0 mi SSE 10.4 mph - 0.00 in Snow Light Snow
11:32 AM 30.2 °F 20.8 °F 28.4 °F 93% 30.00 in 1.2 mi SE 11.5 mph - 0.00 in Snow Light Snow
11:40 AM 30.2 °F 20.2 °F 28.4 °F 93% 30.00 in 0.5 mi SSE 12.7 mph 21.9 mph 0.00 in Fog , Snow Snow
11:47 AM 30.2 °F 21.3 °F 28.4 °F 93% 29.99 in 0.5 mi SSE 10.4 mph 18.4 mph 0.01 in Fog , Snow Snow
11:52 AM 30.9 °F 23.5 °F 28.9 °F 92% 30.03 in 0.5 mi SSE 8.1 mph 18.4 mph 0.01 in Fog , Snow Snow
11:59 AM 30.2 °F 21.3 °F 28.4 °F 93% 29.98 in 0.2 mi SSE 10.4 mph 17.3 mph 0.01 in Fog , Snow Snow
12:11 PM 30.2 °F 21.3 °F 28.4 °F 93% 29.97 in 0.2 mi SSE 10.4 mph 18.4 mph 0.02 in Fog , Snow Snow
12:52 PM 30.0 °F 23.2 °F 28.9 °F 96% 29.98 in 0.2 mi Variable 6.9 mph - 0.07 in Fog , Snow Snow
1:52 PM 28.9 °F 19.8 °F 28.0 °F 96% 29.96 in 0.2 mi SSE 10.4 mph 18.4 mph 0.09 in Fog , Snow Snow
2:52 PM 28.9 °F 21.1 °F 28.0 °F 96% 29.92 in 0.2 mi SE 8.1 mph 16.1 mph 0.07 in Fog , Snow Snow
3:08 PM 30.2 °F 23.4 °F 28.4 °F 93% 29.87 in 0.2 mi SE 6.9 mph - 0.02 in Fog , Snow Snow
3:52 PM 30.9 °F 26.2 °F 30.0 °F 96% 29.88 in 0.2 mi SE 4.6 mph - 0.07 in Fog , Snow Snow
4:04 PM 30.2 °F 22.6 °F 30.2 °F 100% 29.85 in 0.5 mi SE 8.1 mph 17.3 mph 0.02 in Fog , Snow Snow
4:29 PM 30.2 °F 24.3 °F 30.2 °F 100% 29.85 in 0.2 mi Variable 5.8 mph - 0.05 in Fog , Snow Snow
4:41 PM 30.2 °F 24.3 °F 30.2 °F 100% 29.84 in 0.5 mi SE 5.8 mph - 0.07 in Fog , Snow Snow
4:52 PM 30.9 °F 25.2 °F 30.9 °F 100% 29.87 in 0.5 mi SE 5.8 mph - 0.11 in Fog , Snow Snow
5:52 PM 32.0 °F 26.4 °F 32.0 °F 100% 29.84 in 0.5 mi SSE 5.8 mph - 0.16 in Fog , Snow Snow
6:34 PM 32.0 °F 26.4 °F 30.2 °F 93% 29.80 in 0.5 mi SSE 5.8 mph - 0.11 in Fog , Snow Snow
6:44 PM 30.2 °F 21.9 °F 30.2 °F 100% 29.80 in 0.5 mi SSE 9.2 mph - 0.13 in Fog , Snow Snow
6:52 PM 30.9 °F 24.3 °F 30.9 °F 100% 29.83 in 0.5 mi SSE 6.9 mph - 0.15 in Fog , Snow Snow
7:02 PM 30.2 °F 25.4 °F 30.2 °F 100% 29.79 in 0.5 mi SSE 4.6 mph - 0.02 in Fog , Snow Snow
7:36 PM 30.2 °F 24.3 °F 30.2 °F 100% 29.77 in 0.5 mi SE 5.8 mph 16.1 mph 0.09 in Fog , Snow Snow
7:52 PM 30.9 °F 21.2 °F 30.9 °F 100% 29.80 in 0.8 mi SSE 12.7 mph 19.6 mph 0.13 in Snow Light Snow
8:45 PM 30.2 °F 21.3 °F 30.2 °F 100% 29.75 in 1.0 mi SSE 10.4 mph 21.9 mph 0.06 in Snow Light Snow
8:52 PM 30.9 °F 20.2 °F 30.9 °F 100% 29.79 in 0.8 mi SSE 15.0 mph 19.6 mph 0.08 in Snow Light Snow
9:13 PM 30.2 °F 20.2 °F 30.2 °F 100% 29.75 in 1.0 mi SSE 12.7 mph 26.5 mph 0.02 in Snow Light Snow
9:52 PM 30.9 °F 21.7 °F 30.9 °F 100% 29.76 in 1.0 mi SSE 11.5 mph 31.1 mph 0.03 in Snow Light Snow
10:00 PM 30.2 °F 20.8 °F 30.2 °F 100% 29.72 in 0.5 mi SSE 11.5 mph 20.7 mph 0.00 in Fog Light Freezing Fog
10:52 PM 30.0 °F 20.5 °F 30.0 °F 100% 29.77 in 0.2 mi South 11.5 mph 19.6 mph 0.08 in Fog , Snow Snow
11:03 PM 30.2 °F 19.8 °F 28.4 °F 93% 29.74 in 0.5 mi South 13.8 mph 18.4 mph 0.01 in Fog , Snow Snow
11:15 PM 30.2 °F 19.3 °F 28.4 °F 93% 29.74 in 0.2 mi South 15.0 mph - 0.03 in Fog , Snow Heavy Snow
11:31 PM 28.4 °F 18.0 °F 28.4 °F 100% 29.74 in 0.5 mi SSE 12.7 mph 23.0 mph 0.05 in Fog , Snow Snow
11:52 PM 30.0 °F 18.7 °F 28.9 °F 96% 29.77 in 0.5 mi SSE 16.1 mph 23.0 mph 0.06 in Fog , Snow Snow